Location: Bienfait
(49.1431°N, 102.8077°W)
Time: 01:55:58
(UTC+00:00)

Tiangong - Visible Passes

Search period start: 29 November 2022 00:00
Search period end: 09 December 2022 00:00
Orbit: 386 x 393 km, 41.5° (Epoch: 28 November)

Date Brightness Start Highest point End Pass type
(mag) Time Alt. Az. Time Alt. Az. Time Alt. Az.
01 Dec 0.6 00:48:33 10° SSE 00:49:06 10° SSE 00:49:07 10° SSE visible
02 Dec 0.6 01:25:08 10° SSW 01:26:03 14° SSW 01:26:03 14° SSW visible
03 Dec 0.3 00:27:34 10° SSW 00:29:23 14° SSE 00:30:38 12° SE visible
03 Dec 0.6 23:30:31 10° S 23:31:24 11° SSE 23:32:18 10° SE visible
04 Dec -0.1 01:05:12 10° SW 01:07:28 20° S 01:07:28 20° S visible
05 Dec 0.2 00:07:18 10° SW 00:09:33 18° S 00:11:48 10° SE visible
05 Dec 0.9 01:43:29 10° SW 01:44:17 14° SW 01:44:17 14° SW visible
06 Dec -0.1 00:45:18 10° SW 00:47:46 21° S 00:48:47 18° SSE visible
06 Dec 0.1 23:47:11 10° SW 23:49:37 20° S 23:52:03 10° SE visible
07 Dec 0.4 01:23:47 10° SW 01:25:35 17° SSW 01:25:35 17° SSW visible
08 Dec 0.2 00:25:23 10° SW 00:27:46 19° S 00:30:08 10° SE visible
